Location: Dreilärchen
(47.9312°N, 8.6113°E)
Time: 03:12:57
(UTC+00:00)

ADEOS II - Pass Details

Date: 26 May 2022
Orbit: 798 x 801 km, 98.6° (Epoch: 26 June)

Event Time Altitude Azimuth Distance (km) Brightness Sun altitude
Rises 01:36:58 0° 15° (NNE) 3,319 6.8 -14.7°
Reaches altitude 10° 01:39:19 10° 16° (NNE) 2,384 5.8 -14.5°
Maximum altitude 01:44:36 81° 104° (ESE) 814 2.1 -14.0°
Enters shadow 01:48:43 17° 191° (SSW) 1,924 3.5 -13.6°
